カタログに戻る

CZ-2D DEB

運用中PO
NORAD 44619·DEBRIS·🇨🇳 China

打ち上げ Jun 2, 2018 から Jiuquan Satellite Launch Center

Loading…

次のパス (今後24時間)

TLE

最新Source: Space-Track

元期: Sep 14, 2026, 08:48 UTC

1 44619U 18048F   26257.36703915  .00003072  00000-0  22144-3 0  9999
2 44619  98.2825 111.2281 0010124 277.4964  82.5110 15.04971499445068

AllMySatでCZ-2D DEBをリアルタイム追跡

Download on the App Store